WZZ3AC LIMJ-LICC

Flight info

Callsign WZZ3AC
Flight time N/A
Altitude 35000
Route UNITA DCT ELB DCT PODOX DCT LURON DCT BEKIV DCT ENEPA DCT LIBRO
Aircraft A321/M-SDE3FGHIRWY/LB1

Departure

Time 2026-04-26 18:52
Airport Genoa Cristoforo Colombo Airport (LIMJ)

Arrival

Time N/A
Airport Catania-Fontanarossa Airport (LICC)
Time Latitude Longitude Altitude Speed Heading
2026-04-26 18:15 44.41581 8.84747 18 ft 0 kts 52°
2026-04-26 18:37 44.41581 8.84746 18 ft 0 kts 52°
2026-04-26 18:37 44.41581 8.84747 18 ft 0 kts 52°
2026-04-26 18:37 44.41583 8.84757 19 ft 3 kts 74°
2026-04-26 18:37 44.41574 8.84793 18 ft 5 kts 128°
2026-04-26 18:38 44.41539 8.84802 18 ft 6 kts 208°
2026-04-26 18:38 44.41507 8.84755 18 ft 7 kts 227°
2026-04-26 18:38 44.41473 8.84698 18 ft 8 kts 232°
2026-04-26 18:38 44.41425 8.84660 18 ft 7 kts 176°
2026-04-26 18:39 44.41397 8.84714 20 ft 8 kts 103°
2026-04-26 18:39 44.41383 8.84790 18 ft 9 kts 105°
2026-04-26 18:39 44.41367 8.84875 19 ft 10 kts 105°
2026-04-26 18:39 44.41349 8.84970 18 ft 11 kts 102°
2026-04-26 18:40 44.41332 8.85074 18 ft 11 kts 104°
2026-04-26 18:40 44.41311 8.85183 18 ft 11 kts 105°
2026-04-26 18:40 44.41281 8.85259 18 ft 8 kts 137°
2026-04-26 18:40 44.41271 8.85268 18 ft 1 kts 144°
2026-04-26 18:41 44.41265 8.85275 18 ft 2 kts 144°
2026-04-26 18:41 44.41251 8.85283 19 ft 3 kts 161°
2026-04-26 18:41 44.41230 8.85284 18 ft 4 kts 188°
2026-04-26 18:41 44.41209 8.85277 18 ft 1 kts 193°
2026-04-26 18:42 44.41207 8.85276 18 ft 0 kts 193°
2026-04-26 18:43 44.41202 8.85274 18 ft 1 kts 193°
2026-04-26 18:43 44.41189 8.85270 18 ft 3 kts 193°
2026-04-26 18:43 44.41162 8.85260 17 ft 5 kts 195°
2026-04-26 18:43 44.41152 8.85256 17 ft 0 kts 195°
2026-04-26 18:47 44.41135 8.85250 16 ft 4 kts 195°
2026-04-26 18:47 44.41099 8.85236 15 ft 3 kts 195°
2026-04-26 18:47 44.41097 8.85235 15 ft 0 kts 195°
2026-04-26 18:49 44.41096 8.85235 15 ft 1 kts 195°
2026-04-26 18:50 44.41067 8.85219 16 ft 7 kts 210°
2026-04-26 18:50 44.41024 8.85175 12 ft 5 kts 216°
2026-04-26 18:50 44.41006 8.85139 13 ft 3 kts 268°
2026-04-26 18:50 44.41011 8.85119 13 ft 2 kts 287°
2026-04-26 18:51 44.41028 8.85039 16 ft 29 kts 286°
2026-04-26 18:51 44.41148 8.84422 21 ft 101 kts 285°
2026-04-26 18:51 44.41390 8.83185 33 ft 159 kts 285°
2026-04-26 18:51 44.41714 8.81628 565 ft 168 kts 285°
2026-04-26 18:52 44.41920 8.80027 1270 ft 169 kts 263°
2026-04-26 18:52 44.41498 8.78486 1837 ft 175 kts 232°
2026-04-26 18:52 44.40476 8.77473 2091 ft 188 kts 194°
2026-04-26 18:52 44.39177 8.77491 2575 ft 190 kts 160°
2026-04-26 18:53 44.37961 8.78298 2948 ft 201 kts 155°
2026-04-26 18:53 44.36608 8.79097 3101 ft 224 kts 158°
2026-04-26 18:53 44.35077 8.79937 3329 ft 247 kts 158°
2026-04-26 18:53 44.33442 8.80822 3914 ft 255 kts 158°
2026-04-26 18:54 44.31774 8.81727 4642 ft 259 kts 157°
2026-04-26 18:54 44.30082 8.82654 5339 ft 263 kts 157°
2026-04-26 18:54 44.28365 8.83604 6021 ft 268 kts 157°
2026-04-26 18:54 44.26618 8.84577 6667 ft 273 kts 157°
2026-04-26 18:55 44.24833 8.85573 7284 ft 278 kts 157°
2026-04-26 18:55 44.23021 8.86585 7949 ft 282 kts 157°
2026-04-26 18:55 44.21191 8.87605 8614 ft 285 kts 157°
2026-04-26 18:55 44.19338 8.88635 9290 ft 288 kts 158°
2026-04-26 18:56 44.17469 8.89677 9967 ft 291 kts 158°
2026-04-26 18:56 44.15565 8.90743 10449 ft 302 kts 157°
2026-04-26 18:56 44.13547 8.91876 10580 ft 324 kts 158°
2026-04-26 18:56 44.11386 8.93086 10707 ft 345 kts 158°
2026-04-26 18:57 44.09102 8.94361 10947 ft 360 kts 158°
2026-04-26 18:57 44.08342 8.94783 11109 ft 362 kts 158°
2026-04-26 18:57 44.04384 8.96980 12073 ft 368 kts 158°
2026-04-26 18:57 44.01996 8.98302 12673 ft 372 kts 158°
2026-04-26 18:58 43.99579 8.99640 13269 ft 376 kts 158°
2026-04-26 18:58 43.97140 9.00995 13869 ft 379 kts 158°
2026-04-26 18:58 43.94736 9.02537 14100 ft 381 kts 149°
2026-04-26 18:58 43.92590 9.04617 14158 ft 381 kts 139°
2026-04-26 18:59 43.90570 9.06980 14163 ft 381 kts 139°
2026-04-26 18:59 43.88543 9.09342 14168 ft 381 kts 139°
2026-04-26 18:59 43.86515 9.11693 14168 ft 380 kts 140°
2026-04-26 18:59 43.84473 9.14050 14628 ft 383 kts 140°
2026-04-26 19:00 43.82412 9.16425 15192 ft 386 kts 140°
2026-04-26 19:00 43.80336 9.18812 15728 ft 390 kts 140°
2026-04-26 19:00 43.78240 9.21219 16268 ft 393 kts 140°
2026-04-26 19:00 43.76126 9.23650 16793 ft 397 kts 140°
2026-04-26 19:01 43.73998 9.26098 17325 ft 401 kts 141°
2026-04-26 19:01 43.71840 9.28577 17853 ft 404 kts 141°
2026-04-26 19:01 43.69668 9.31071 18373 ft 408 kts 141°
2026-04-26 19:01 43.67478 9.33587 18832 ft 411 kts 141°
2026-04-26 19:02 43.65270 9.36118 19302 ft 414 kts 141°
2026-04-26 19:02 43.63045 9.38661 19767 ft 417 kts 141°
2026-04-26 19:02 43.60805 9.41219 20230 ft 419 kts 141°
2026-04-26 19:02 43.60046 9.42084 20385 ft 420 kts 141°
2026-04-26 19:03 43.56277 9.46373 21137 ft 424 kts 142°
2026-04-26 19:03 43.53988 9.48979 21568 ft 427 kts 141°
2026-04-26 19:03 43.51699 9.51594 21993 ft 430 kts 141°
2026-04-26 19:03 43.50166 9.53345 22276 ft 431 kts 141°
2026-04-26 19:04 43.47848 9.55987 22685 ft 434 kts 141°
2026-04-26 19:04 43.45521 9.58631 23106 ft 436 kts 141°
2026-04-26 19:04 43.43168 9.61298 23512 ft 438 kts 141°
2026-04-26 19:04 43.40809 9.63974 23882 ft 441 kts 141°
2026-04-26 19:05 43.36050 9.69355 24557 ft 445 kts 142°
2026-04-26 19:05 43.33650 9.72061 24886 ft 447 kts 142°
2026-04-26 19:05 43.31237 9.74780 25210 ft 450 kts 141°
2026-04-26 19:06 43.28813 9.77513 25526 ft 452 kts 141°
2026-04-26 19:06 43.26376 9.80257 25851 ft 454 kts 141°
2026-04-26 19:06 43.23926 9.83015 26168 ft 457 kts 141°
2026-04-26 19:06 43.21464 9.85784 26494 ft 459 kts 141°
2026-04-26 19:07 43.18991 9.88566 26784 ft 461 kts 141°
2026-04-26 19:07 43.16506 9.91356 27093 ft 463 kts 141°
2026-04-26 19:07 43.14009 9.94152 27391 ft 465 kts 141°
2026-04-26 19:07 43.11500 9.96958 27684 ft 467 kts 141°
2026-04-26 19:08 43.08979 9.99773 27976 ft 469 kts 141°
2026-04-26 19:08 43.06447 10.02600 28283 ft 471 kts 141°
2026-04-26 19:08 43.03903 10.05438 28584 ft 473 kts 141°
2026-04-26 19:08 43.01380 10.08246 28876 ft 475 kts 141°
2026-04-26 19:09 42.98777 10.11138 29190 ft 476 kts 142°
2026-04-26 19:09 42.96209 10.13987 29587 ft 475 kts 141°
2026-04-26 19:09 42.93648 10.16829 30024 ft 474 kts 141°
2026-04-26 19:09 42.91092 10.19663 30402 ft 473 kts 141°
2026-04-26 19:10 42.88540 10.22493 30728 ft 472 kts 141°
2026-04-26 19:10 42.85992 10.25319 31063 ft 472 kts 141°
2026-04-26 19:10 42.83449 10.28133 31376 ft 472 kts 141°
2026-04-26 19:10 42.80931 10.30917 31698 ft 471 kts 141°
2026-04-26 19:11 42.78385 10.33727 32016 ft 471 kts 141°
2026-04-26 19:11 42.75829 10.36512 32333 ft 470 kts 144°
2026-04-26 19:11 42.73077 10.38900 32636 ft 469 kts 153°
2026-04-26 19:11 42.70104 10.40704 32941 ft 467 kts 162°
2026-04-26 19:12 42.67000 10.42003 33238 ft 467 kts 165°
2026-04-26 19:12 42.63872 10.43253 33545 ft 466 kts 165°
2026-04-26 19:12 42.60769 10.44498 33850 ft 466 kts 165°
2026-04-26 19:12 42.57648 10.45753 34152 ft 465 kts 165°
2026-04-26 19:13 42.54544 10.47001 34417 ft 465 kts 165°
2026-04-26 19:13 42.51443 10.48246 34653 ft 465 kts 165°
2026-04-26 19:13 42.48342 10.49486 34903 ft 464 kts 165°
2026-04-26 19:13 42.45242 10.50721 35109 ft 465 kts 165°
2026-04-26 19:14 42.42137 10.51956 35162 ft 466 kts 165°
2026-04-26 19:14 42.35917 10.54427 35169 ft 466 kts 165°
2026-04-26 19:15 42.29741 10.56893 35167 ft 466 kts 163°
2026-04-26 19:15 42.23891 10.60701 35168 ft 469 kts 151°
2026-04-26 19:16 42.18260 10.65152 35167 ft 469 kts 151°
2026-04-26 19:16 42.12616 10.69576 35171 ft 469 kts 151°
2026-04-26 19:17 42.06966 10.73996 35171 ft 470 kts 151°
2026-04-26 19:17 42.01301 10.78411 35179 ft 470 kts 151°
2026-04-26 19:18 41.95640 10.82825 35183 ft 471 kts 151°
2026-04-26 19:18 41.89978 10.87245 35199 ft 471 kts 151°
2026-04-26 19:19 41.84318 10.91648 35196 ft 470 kts 151°
2026-04-26 19:19 41.78649 10.96048 35191 ft 470 kts 151°
2026-04-26 19:20 41.72981 11.00431 35193 ft 470 kts 151°
2026-04-26 19:20 41.67317 11.04802 35189 ft 470 kts 151°
2026-04-26 19:21 41.61693 11.09144 35193 ft 470 kts 151°
2026-04-26 19:21 41.55998 11.13527 35190 ft 469 kts 151°
2026-04-26 19:22 41.50339 11.17862 35195 ft 469 kts 151°
2026-04-26 19:22 41.44673 11.22193 35190 ft 469 kts 151°
2026-04-26 19:23 41.39053 11.26487 35197 ft 468 kts 151°
2026-04-26 19:23 41.33402 11.30807 35199 ft 468 kts 151°
2026-04-26 19:24 41.27751 11.35108 35197 ft 468 kts 152°
2026-04-26 19:24 41.19283 11.41533 35192 ft 467 kts 152°
2026-04-26 19:25 41.14596 11.45078 35194 ft 467 kts 152°
2026-04-26 19:25 41.07995 11.50062 35199 ft 467 kts 152°
2026-04-26 19:26 41.02348 11.54333 35197 ft 467 kts 152°
2026-04-26 19:26 40.96713 11.58588 35196 ft 467 kts 152°
2026-04-26 19:27 40.91058 11.62833 35200 ft 467 kts 152°
2026-04-26 19:27 40.85408 11.67068 35201 ft 467 kts 152°
2026-04-26 19:28 40.79761 11.71302 35202 ft 466 kts 152°
2026-04-26 19:28 40.74114 11.75520 35194 ft 466 kts 152°
2026-04-26 19:29 40.68505 11.79694 35198 ft 466 kts 152°
2026-04-26 19:29 40.62862 11.83889 35199 ft 466 kts 152°
2026-04-26 19:30 40.57224 11.88084 35197 ft 465 kts 152°
2026-04-26 19:30 40.52505 11.91586 35200 ft 465 kts 152°
2026-04-26 19:31 40.45946 11.96442 35196 ft 465 kts 152°
2026-04-26 19:31 40.40308 12.00599 35197 ft 464 kts 152°
2026-04-26 19:32 40.34673 12.04746 35198 ft 464 kts 152°
2026-04-26 19:32 40.29037 12.08891 35198 ft 465 kts 152°
2026-04-26 19:33 40.23398 12.13029 35192 ft 464 kts 152°
2026-04-26 19:33 40.17760 12.17162 35196 ft 464 kts 152°
2026-04-26 19:34 40.12119 12.21287 35194 ft 464 kts 152°
2026-04-26 19:34 40.06475 12.25403 35200 ft 465 kts 152°
2026-04-26 19:35 40.00829 12.29515 35199 ft 465 kts 152°
2026-04-26 19:35 39.95176 12.33626 35201 ft 465 kts 152°
2026-04-26 19:36 39.91435 12.36334 35200 ft 465 kts 152°
2026-04-26 19:36 39.83873 12.41803 35201 ft 465 kts 152°
2026-04-26 19:37 39.78260 12.45859 35197 ft 465 kts 152°
2026-04-26 19:37 39.72617 12.49941 35198 ft 465 kts 152°
2026-04-26 19:38 39.66958 12.54022 35198 ft 465 kts 152°
2026-04-26 19:38 39.61302 12.58088 35198 ft 465 kts 152°
2026-04-26 19:39 39.55641 12.62161 35189 ft 465 kts 152°
2026-04-26 19:39 39.49972 12.66223 35188 ft 465 kts 153°
2026-04-26 19:40 39.44306 12.70274 35189 ft 466 kts 153°
2026-04-26 19:40 39.38623 12.74333 35193 ft 466 kts 153°
2026-04-26 19:41 39.32946 12.78376 35196 ft 466 kts 153°
2026-04-26 19:41 39.29175 12.81056 35187 ft 467 kts 153°
2026-04-26 19:42 39.21553 12.86456 35187 ft 468 kts 153°
2026-04-26 19:42 39.15847 12.90507 35190 ft 468 kts 153°
2026-04-26 19:43 39.10130 12.94540 35195 ft 469 kts 153°
2026-04-26 19:43 39.04409 12.98572 35180 ft 469 kts 153°
2026-04-26 19:44 38.98711 13.02590 35184 ft 470 kts 153°
2026-04-26 19:44 38.92967 13.06621 35188 ft 471 kts 153°
2026-04-26 19:45 38.87217 13.10651 35187 ft 471 kts 153°
2026-04-26 19:45 38.81371 13.14419 35183 ft 470 kts 158°
2026-04-26 19:46 38.75370 13.17739 35182 ft 470 kts 160°
2026-04-26 19:46 38.69337 13.21006 35189 ft 471 kts 159°
2026-04-26 19:47 38.65323 13.23249 35187 ft 471 kts 159°
2026-04-26 19:47 38.57343 13.27805 35191 ft 471 kts 159°
2026-04-26 19:48 38.52369 13.30643 35194 ft 471 kts 159°
2026-04-26 19:48 38.46380 13.34023 34933 ft 468 kts 159°
2026-04-26 19:49 38.43399 13.35696 34704 ft 467 kts 159°
2026-04-26 19:49 38.40422 13.37366 34465 ft 467 kts 159°
2026-04-26 19:49 38.37434 13.39045 33668 ft 473 kts 159°
2026-04-26 19:49 38.34411 13.40743 32793 ft 476 kts 159°
2026-04-26 19:50 38.31366 13.42454 31895 ft 481 kts 159°
2026-04-26 19:50 38.28283 13.44186 30966 ft 486 kts 159°
2026-04-26 19:50 38.25173 13.45929 29962 ft 491 kts 160°
2026-04-26 19:50 38.22035 13.47685 29246 ft 488 kts 159°
2026-04-26 19:51 38.18951 13.49415 28677 ft 482 kts 159°
2026-04-26 19:51 38.15891 13.51130 28069 ft 479 kts 159°
2026-04-26 19:51 38.12856 13.52827 27451 ft 475 kts 159°
2026-04-26 19:51 38.09848 13.54508 26826 ft 470 kts 159°
2026-04-26 19:52 38.06869 13.56173 26229 ft 466 kts 159°
2026-04-26 19:52 38.03948 13.57804 25643 ft 462 kts 159°
2026-04-26 19:52 38.01015 13.59437 25051 ft 458 kts 159°
2026-04-26 19:52 37.98104 13.61054 24461 ft 455 kts 159°
2026-04-26 19:53 37.95220 13.62658 23881 ft 452 kts 159°
2026-04-26 19:53 37.92376 13.64328 23227 ft 450 kts 153°
2026-04-26 19:53 37.89803 13.66567 22694 ft 447 kts 141°
2026-04-26 19:53 37.87656 13.69377 22169 ft 443 kts 129°
2026-04-26 19:54 37.86001 13.72636 21640 ft 439 kts 117°
2026-04-26 19:54 37.84819 13.76170 21141 ft 434 kts 112°
2026-04-26 19:54 37.83718 13.79705 20631 ft 430 kts 112°
2026-04-26 19:54 37.82640 13.83146 20375 ft 407 kts 112°
2026-04-26 19:55 37.81636 13.86346 20230 ft 377 kts 112°
2026-04-26 19:55 37.80692 13.89351 19778 ft 361 kts 112°
2026-04-26 19:55 37.79767 13.92288 19419 ft 357 kts 112°
2026-04-26 19:55 37.78851 13.95183 19092 ft 353 kts 112°
2026-04-26 19:56 37.77937 13.98048 18743 ft 350 kts 113°
2026-04-26 19:56 37.77024 14.00888 18387 ft 347 kts 113°
2026-04-26 19:56 37.76116 14.03706 17989 ft 345 kts 113°
2026-04-26 19:56 37.75213 14.06500 17588 ft 342 kts 113°
2026-04-26 19:57 37.74315 14.09271 17204 ft 340 kts 113°
2026-04-26 19:57 37.73421 14.12021 16826 ft 337 kts 113°
2026-04-26 19:57 37.72529 14.14747 16456 ft 335 kts 113°
2026-04-26 19:57 37.71644 14.17453 16094 ft 332 kts 113°
2026-04-26 19:58 37.70783 14.20091 15797 ft 327 kts 113°
2026-04-26 19:58 37.69905 14.22778 14724 ft 336 kts 113°
2026-04-26 19:58 37.69013 14.25513 13839 ft 335 kts 113°
2026-04-26 19:58 37.68133 14.28211 13112 ft 326 kts 113°